Regional Weather Roundup
Issued by NWS

Home | Current Version | Previous Version | Graphics & Text | Print | Product List | Glossary On
Versions: 1 2 3 4 5 6 7 8 9 10 11 12 13 14 15 16 17 18 19 20 21 22 23 24 25 26 27 28 29 30 31 32 33 34 35 36 37 38 39 40 41 42 43 44 45 46 47 48 49 50
000
ASUS43 KOAX 222210
RWRNE

WEATHER ROUNDUP FOR NEBRASKA
NATIONAL WEATHER SERVICE OMAHA NE
500 PM CDT TUE AUG 22 2017

NOTES: SATELLITE DATA IS BEING USED TO AUGMENT CLOUD COVER ABOVE
       12000 FEET.
       "FAIR" INDICATES FEW OR NO CLOUDS BELOW 12,000 FEET WITH NO
       SIGNIFICANT WEATHER AND/OR OBSTRUCTIONS TO VISIBILITY.


NEZ001>004-019>022-054>056-222300-
NEBRASKA PANHANDLE

CITY           SKY/WX    TMP DP  RH WIND       PRES   REMARKS
SCOTTSBLUFF    SUNNY     84  50  30 S14       30.18F
ALLIANCE       SUNNY     79  46  31 S16G24    30.21F
CHADRON        SUNNY     85  45  24 S15       30.14F
GORDON         FAIR      82  42  24 S9        30.19F
KIMBALL        SUNNY     80  49  33 S13G29    30.25F
SIDNEY         SUNNY     81  47  30 S18G25    30.25F
$$

NEZ057>060-069>072-079>082-222300-
SOUTHWEST NEBRASKA

CITY           SKY/WX    TMP DP  RH WIND       PRES   REMARKS
NORTH PLATTE   SUNNY     79  54  41 SE6       30.22F
IMPERIAL       SUNNY     81  42  25 SE13G20   30.23F
LEXINGTON      SUNNY     76  53  44 NE3       30.22F
MCCOOK         SUNNY     80  49  33 E8        30.21F
OGALLALA       SUNNY     80  47  31 SE12      30.22F
$$

NEZ005>010-023>029-035>040-094-222300-
NORTH CENTRAL NEBRASKA

CITY           SKY/WX    TMP DP  RH WIND       PRES   REMARKS
VALENTINE      SUNNY     81  43  26 S6        30.18F
AINSWORTH      SUNNY     75  52  44 NE6       30.21F
BROKEN BOW     SUNNY     79  49  34 E5        30.21F
O`NEILL        SUNNY     75  51  43 NW6       30.21S
ORD            SUNNY     76  44  32 CALM      30.19F
THEDFORD       SUNNY     81  47  30 S6        30.21F
$$

NEZ041-046>049-061>064-073>077-083>087-222300-
SOUTH CENTRAL NEBRASKA

CITY           SKY/WX    TMP DP  RH WIND       PRES   REMARKS
GRAND ISLAND   SUNNY     77  48  35 VRB5      30.21S
AURORA         SUNNY     74  51  45 NE6       30.20F
HASTINGS       SUNNY     76  50  40 CALM      30.22F
HEBRON         SUNNY     79  48  33 N8        30.17F
HOLDREGE       SUNNY     74  52  45 NE5       30.22F
KEARNEY        SUNNY     75  50  41 CALM      30.22F
YORK           SUNNY     73  52  46 NE6       30.20S
$$

NEZ011>018-030>034-042>045-222300-
NORTHEAST NEBRASKA

CITY           SKY/WX    TMP DP  RH WIND       PRES   REMARKS
NORFOLK        SUNNY     75  50  41 N12       30.18S
ALBION         SUNNY     75  52  44 NW6       30.20S
BLAIR          SUNNY     74  51  44 NW6       30.16S
FREMONT        SUNNY     75  49  40 NW7       30.17F
TEKAMAH        SUNNY     76  50  40 N8        30.15F
WAYNE          SUNNY     74  48  39 N8        30.17F
$$

NEZ050>053-065>068-078-088>093-222300-
SOUTHEAST NEBRASKA

CITY           SKY/WX    TMP DP  RH WIND       PRES   REMARKS
LINCOLN        SUNNY     77  51  40 N10       30.18S
OMAHA EPPLEY   MOSUNNY   77  51  40 N8        30.15S
BEATRICE       SUNNY     77  53  42 N10       30.17S
FALLS CITY     SUNNY     76  53  44 N14       30.12F
NEBRASKA CITY  SUNNY     75  51  43 N9        30.15F
PLATTSMOUTH    SUNNY     75  46  35 N6        30.16S
$$

NEZ044-045-051>053-067-222300-
OMAHA AREA

CITY           SKY/WX    TMP DP  RH WIND       PRES   REMARKS
OMAHA EPPLEY   MOSUNNY   77  51  40 N8        30.15S
BLAIR          SUNNY     74  51  44 NW6       30.16S
FREMONT        SUNNY     75  49  40 NW7       30.17F
MILLARD        SUNNY     76  52  42 N7        30.15F
OFFUTT AFB     SUNNY     77  48  35 N8        30.14F
PLATTSMOUTH    SUNNY     75  46  35 N6        30.16S
WAHOO          FAIR      74  52  45 N9        30.17S
$$




USA.gov is the U.S. government's official web portal to all federal, state and local government web resources and services.